Location: Newark
(48.8604°N, 2.3376°E)
Time: 21:34:08
(UTC+00:00)

Envisat - Pass Details

Date: 03 October 2021
Orbit: 764 x 766 km, 98.2° (Epoch: 16 October)

Event Time Altitude Azimuth Distance (km) Brightness Sun altitude
Rises 03:58:43 0° 25° (NNE) 3,242 6.9 -19.4°
Reaches altitude 10° 04:01:31 10° 40° (NE) 2,311 6.3 -19.0°
Maximum altitude 04:05:29 22° 91° (E) 1,612 5.5 -18.4°
Drops below altitude 10° 04:09:24 10° 142° (SE) 2,297 5.8 -17.8°
Sets 04:12:11 0° 157° (SSE) 3,218 6.3 -17.3°
